{"data":{"norad_id":35498,"intl_designator":"2009-036A","name":"COSMOS 2451","alt_names":[],"object_type":"PAYLOAD","status":"ACTIVE","operator":null,"country":"CIS","launch_date":"2009-07-06","launch_site_code":"PLMSC","launch_vehicle":null,"mission":null,"orbit_class":"UNKNOWN","rcs_meters":0.7842,"size_class":null,"mass_kg":null,"dimensions":null,"purposes":[],"wikipedia_slug":null,"has_3d_model":false,"image_url":null,"decayed_at":null,"tle_current":{"epoch":"2026-09-20T03:39:18.867744Z","epoch_age_seconds":48350,"freshness":"FRESH","line1":"1 35498U 09036A   26263.15230171  .00000012  00000+0  19479-4 0  9992","line2":"2 35498  82.4903  33.4147 0006807  12.6113 347.5135 12.40872121779429","mean_motion":12.40872121,"eccentricity":0.0006807,"inclination_deg":82.4903,"raan_deg":33.4147,"arg_perigee_deg":12.6113,"mean_anomaly_deg":347.5135,"bstar":1.9479e-5,"rev_number":77942,"period_min":116.04741339821,"perigee_km":1497.5436601913,"apogee_km":1508.272915246,"semimajor_km":7881.0452877187,"source":"CELESTRAK","updated_at":"2026-09-20T09:00:13.706308Z"}}}